Location: Gradaro
(45.0833°N, 10.8833°E)
Time: 10:14:57
(UTC+00:00)

FENGYUN 1C DEB - Pass Details

Date: 29 June 2021
Orbit: 803 x 830 km, 98.8° (Epoch: 28 July)

Event Time Altitude Azimuth Distance (km) Brightness Sun altitude
Exits shadow 19:49:28 - 104° (ESE) 2,914 ? -6.6°
Reaches altitude 10° 19:51:27 10° 89° (E) 2,403 ? -6.9°
Maximum altitude 19:54:20 15° 56° (NE) 2,081 ? -7.2°
Drops below altitude 10° 19:57:14 10° 23° (NNE) 2,421 ? -7.6°
Sets 20:00:35 0° 1° (N) 3,364 ? -8.0°
